Starlink 30753

operational
NORAD ID: 58175 Int'l Des: 2023-167 Owner: SPXS Country: US Constellation: starlink
LEOCIRCULAR

About Starlink 30753

Description loading...

Live Position

Loading 3D Globe...

Upcoming Passes

Altitude History

Altitude vs Time

uPlot chart will show altitude changes over time

Two-Line Element Set

1 58175U 23167A 25257.82210499 -.00000144 00000-0 44235-5 0 9994
2 58175 43.0047 21.2623 0001352 269.0907 90.9781 15.02533299104509
Epoch: Sep 14, 2025 • Age: 18 hours

Current Status

Altitude 561.0 km
Velocity 7.59 km/s
Sub-Earth Point 33.29°N, 49.69°W
Launch Date Oct 30, 2023
Age 1.8 years
Type internet

Technical Details

Classification Payload
Mass 730.00 kg
Dry Mass 700.00 kg
Total Mass 730.00 kg
Length 0.30 m
Diameter 4.10 m
Span 29.00 m
Shape Box + pan
Manufacturer SPXS
Bus Type Starlink V2M
Phase Status In Orbit
Owner/State SPXS/US

Large Constellations

Loading constellations...